Darstellungsparameter: Aktuell verwendete Einstellungen:
Skalierung der Graphiken ... ?
xyx+y,   Skalierungsfaktor:      Skalierung: Modus: x, Faktor: 1
Darstellungszeitraum ... ?
Vom - - bis: - -   Zeitraum: 15.06.2020 - 17.06.2020
Min/Max/Avg-Anzeige ... ?
Zeige MMA aktuell
Zeige MMA Monat
Zeige MMA alles
Zeige --A aktuell
Zeige --A Monat
Zeige --A alles
Keine MMA-Anzeige
MMA:
Minimum Maximum Average (ber die Originaldaten)
MMA-Basis: 23.02.2003 - 13.06.2020
Quicknavigation für Darstellung... ?
Tage:      1T, 2T, 3T, 5T -1T -2T -3T -5T +1T +2T +3T +5T
Wochen: 1W, 2W, 3W -1W -2W -3W +1W +2W +3W
Monate: 1M, 3M, 6M -1M -3M -6M +1M +3M +6M
Jahre:    1J, 3J, 5J, 10J -1J -3J -5J -10J +1J +3J +5J +10J
Nutze für die Darstellung ... ?
Originaldaten oder Mittelwerte auf ...
Stundenbasis Tagesbasis Wochenbasis
Monatsbasis Jahresbasis      Datenbasis: Original-Daten
Darstellen als:
Statistik (Auto) Statistik J:M      Darstellung:
Zur Graphik,    zurück zur Übersicht aller Sensoren.
 
Tabellarische Datenbersicht: ?
 
Sensor: Nr:Datum:Temp:Abs-Feuchte:Windchill:Wind:
Aussen-T/F 1 15-06-2020 00:00:00 17.3 C 13.26 g/m*3 17.3 C 6.4 km/h
2 15-06-2020 00:05:00 17.3 C 13.11 g/m*3 17.3 C 1.6 km/h
3 15-06-2020 00:10:00 17.3 C 13.26 g/m*3 17.3 C 3.2 km/h
4 15-06-2020 00:15:00 17.4 C 13.19 g/m*3 17.4 C 3.2 km/h
5 15-06-2020 00:20:00 17.4 C 13.19 g/m*3 17.4 C 6.4 km/h
6 15-06-2020 00:25:00 17.4 C 13.04 g/m*3 17.4 C 6.4 km/h
7 15-06-2020 00:30:00 17.3 C 12.67 g/m*3 17.3 C 11.3 km/h
8 15-06-2020 00:35:00 17.3 C 12.67 g/m*3 17.3 C 11.3 km/h
9 15-06-2020 00:40:00 17.2 C 12.45 g/m*3 17.2 C 4.8 km/h
10 15-06-2020 00:45:00 17.2 C 12.45 g/m*3 17.2 C 1.6 km/h
11 15-06-2020 00:50:00 17.2 C 12.59 g/m*3 17.2 C 6.4 km/h
12 15-06-2020 00:55:00 17.1 C 12.52 g/m*3 17.1 C 3.2 km/h
13 15-06-2020 01:00:00 17.1 C 12.52 g/m*3 17.1 C 1.6 km/h
14 15-06-2020 01:05:00 17 C 12.44 g/m*3 17 C 1.6 km/h
15 15-06-2020 01:10:00 17 C 12.44 g/m*3 17 C 3.2 km/h
16 15-06-2020 01:15:00 16.9 C 12.51 g/m*3 16.9 C 4.8 km/h
17 15-06-2020 01:20:00 16.9 C 12.51 g/m*3 16.9 C 4.8 km/h
18 15-06-2020 01:25:00 16.9 C 12.51 g/m*3 16.9 C 6.4 km/h
19 15-06-2020 01:30:00 16.8 C 12.44 g/m*3 16.8 C 6.4 km/h
20 15-06-2020 01:35:00 16.8 C 12.44 g/m*3 16.8 C 1.6 km/h
21 15-06-2020 01:40:00 16.8 C 12.44 g/m*3 16.8 C 0 km/h
22 15-06-2020 01:45:00 16.8 C 12.58 g/m*3 16.8 C 0 km/h
23 15-06-2020 01:50:00 16.7 C 12.51 g/m*3 16.7 C 1.6 km/h
24 15-06-2020 01:55:00 16.7 C 12.51 g/m*3 16.7 C 0 km/h
25 15-06-2020 02:00:00 16.7 C 12.51 g/m*3 16.7 C 0 km/h
Sensor: Nr:Datum:Temp:Abs-Feuchte:Windchill:Wind:
Aussen-T/F 26 15-06-2020 02:05:00 16.7 C 12.51 g/m*3 16.7 C 3.2 km/h
27 15-06-2020 02:10:00 16.7 C 12.51 g/m*3 16.7 C 4.8 km/h
28 15-06-2020 02:15:00 16.6 C 12.57 g/m*3 16.6 C 1.6 km/h
29 15-06-2020 02:20:00 16.6 C 12.57 g/m*3 16.6 C 0 km/h
30 15-06-2020 02:25:00 16.6 C 12.57 g/m*3 16.6 C 3.2 km/h
31 15-06-2020 02:30:00 16.6 C 12.57 g/m*3 16.6 C 3.2 km/h
32 15-06-2020 02:35:00 16.6 C 12.57 g/m*3 16.6 C 1.6 km/h
33 15-06-2020 02:40:00 16.6 C 12.57 g/m*3 16.6 C 1.6 km/h
34 15-06-2020 02:45:00 16.6 C 12.57 g/m*3 16.6 C 4.8 km/h
35 15-06-2020 02:50:00 16.6 C 12.57 g/m*3 16.6 C 1.6 km/h
36 15-06-2020 02:55:00 16.6 C 12.57 g/m*3 16.6 C 0 km/h
37 15-06-2020 03:00:00 16.6 C 12.57 g/m*3 16.6 C 1.6 km/h
38 15-06-2020 03:05:00 16.6 C 12.57 g/m*3 16.6 C 3.2 km/h
39 15-06-2020 03:10:00 16.6 C 12.57 g/m*3 16.6 C 3.2 km/h
40 15-06-2020 03:15:00 16.6 C 12.57 g/m*3 16.6 C 0 km/h
41 15-06-2020 03:20:00 16.5 C 12.5 g/m*3 16.5 C 1.6 km/h
42 15-06-2020 03:25:00 16.5 C 12.5 g/m*3 16.5 C 3.2 km/h
43 15-06-2020 03:30:00 16.5 C 12.5 g/m*3 16.5 C 3.2 km/h
44 15-06-2020 03:35:00 16.6 C 12.57 g/m*3 16.6 C 1.6 km/h
45 15-06-2020 03:40:00 16.6 C 12.57 g/m*3 16.6 C 1.6 km/h
46 15-06-2020 03:45:00 16.6 C 12.57 g/m*3 16.6 C 0 km/h
47 15-06-2020 03:50:00 16.6 C 12.57 g/m*3 16.6 C 0 km/h
48 15-06-2020 03:55:00 16.6 C 12.57 g/m*3 16.6 C 0 km/h
49 15-06-2020 04:00:00 16.6 C 12.57 g/m*3 16.6 C 0 km/h
50 15-06-2020 04:05:00 16.6 C 12.57 g/m*3 16.6 C 1.6 km/h
Sensor: Nr:Datum:Temp:Abs-Feuchte:Windchill:Wind:
Aussen-T/F 51 15-06-2020 04:10:00 16.6 C 12.57 g/m*3 16.6 C 1.6 km/h
52 15-06-2020 04:15:00 16.6 C 12.71 g/m*3 16.6 C 4.8 km/h
53 15-06-2020 04:20:00 16.6 C 12.71 g/m*3 16.6 C 4.8 km/h
54 15-06-2020 04:25:00 16.6 C 12.71 g/m*3 16.6 C 4.8 km/h
55 15-06-2020 04:30:00 16.6 C 12.71 g/m*3 16.6 C 6.4 km/h
56 15-06-2020 04:35:00 16.7 C 12.79 g/m*3 16.7 C 8.1 km/h
57 15-06-2020 04:40:00 16.7 C 12.65 g/m*3 16.7 C 4.8 km/h
58 15-06-2020 04:45:00 16.7 C 12.65 g/m*3 16.7 C 6.4 km/h
59 15-06-2020 04:50:00 16.7 C 12.65 g/m*3 16.7 C 4.8 km/h
60 15-06-2020 04:55:00 16.7 C 12.65 g/m*3 16.7 C 4.8 km/h
61 15-06-2020 05:00:00 16.7 C 12.65 g/m*3 16.7 C 1.6 km/h
62 15-06-2020 05:05:00 16.6 C 12.71 g/m*3 16.6 C 0 km/h
63 15-06-2020 05:10:00 16.6 C 12.71 g/m*3 16.6 C 1.6 km/h
64 15-06-2020 05:15:00 16.6 C 12.71 g/m*3 16.6 C 1.6 km/h
65 15-06-2020 05:20:00 16.6 C 12.71 g/m*3 16.6 C 4.8 km/h
66 15-06-2020 05:25:00 16.5 C 12.64 g/m*3 16.5 C 1.6 km/h
67 15-06-2020 05:30:00 16.5 C 12.64 g/m*3 16.5 C 8.1 km/h
68 15-06-2020 05:35:00 16.5 C 12.64 g/m*3 16.5 C 1.6 km/h
69 15-06-2020 05:40:00 16.4 C 12.56 g/m*3 16.4 C 4.8 km/h
70 15-06-2020 05:45:00 16.5 C 12.64 g/m*3 16.5 C 4.8 km/h
71 15-06-2020 05:50:00 16.5 C 12.64 g/m*3 16.5 C 1.6 km/h
72 15-06-2020 05:55:00 16.5 C 12.64 g/m*3 16.5 C 1.6 km/h
73 15-06-2020 06:00:00 16.5 C 12.64 g/m*3 16.5 C 4.8 km/h
74 15-06-2020 06:05:00 16.6 C 12.71 g/m*3 16.6 C 4.8 km/h
75 15-06-2020 06:10:00 16.6 C 12.71 g/m*3 16.6 C 1.6 km/h
Sensor: Nr:Datum:Temp:Abs-Feuchte:Windchill:Wind:
Aussen-T/F 76 15-06-2020 06:15:00 16.6 C 12.71 g/m*3 16.6 C 0 km/h
77 15-06-2020 06:20:00 16.6 C 12.71 g/m*3 16.6 C 0 km/h
78 15-06-2020 06:25:00 16.6 C 12.71 g/m*3 16.6 C 3.2 km/h
79 15-06-2020 06:30:00 16.6 C 12.71 g/m*3 16.6 C 1.6 km/h
80 15-06-2020 06:35:00 16.6 C 12.71 g/m*3 16.6 C 1.6 km/h
81 15-06-2020 06:40:00 16.6 C 12.71 g/m*3 16.6 C 0 km/h
82 15-06-2020 06:45:00 16.6 C 12.71 g/m*3 16.6 C 0 km/h
83 15-06-2020 06:50:00 16.6 C 12.71 g/m*3 16.6 C 1.6 km/h
84 15-06-2020 06:55:00 16.7 C 12.79 g/m*3 16.7 C 0 km/h
85 15-06-2020 07:00:00 16.7 C 12.79 g/m*3 16.7 C 1.6 km/h
86 15-06-2020 07:05:00 16.7 C 12.79 g/m*3 16.7 C 0 km/h
87 15-06-2020 07:10:00 16.7 C 12.79 g/m*3 16.7 C 0 km/h
88 15-06-2020 07:15:00 16.7 C 12.79 g/m*3 16.7 C 0 km/h
89 15-06-2020 07:20:00 16.7 C 12.79 g/m*3 16.7 C 1.6 km/h
90 15-06-2020 07:25:00 16.7 C 12.79 g/m*3 16.7 C 0 km/h
91 15-06-2020 07:30:00 16.8 C 12.87 g/m*3 16.8 C 0 km/h
92 15-06-2020 07:35:00 16.8 C 12.87 g/m*3 16.8 C 4.8 km/h
93 15-06-2020 07:40:00 16.9 C 12.94 g/m*3 16.9 C 4.8 km/h
94 15-06-2020 07:45:00 16.9 C 12.94 g/m*3 16.9 C 1.6 km/h
95 15-06-2020 07:50:00 17 C 13.02 g/m*3 17 C 0 km/h
96 15-06-2020 07:55:00 17.1 C 13.1 g/m*3 17.1 C 0 km/h
97 15-06-2020 08:00:00 17.1 C 12.96 g/m*3 17.1 C 6.4 km/h
98 15-06-2020 08:05:00 17.2 C 13.03 g/m*3 17.2 C 3.2 km/h
99 15-06-2020 08:10:00 17.2 C 13.03 g/m*3 17.2 C 0 km/h
100 15-06-2020 08:15:00 17.3 C 13.11 g/m*3 17.3 C 4.8 km/h
Sensor: Nr:Datum:Temp:Abs-Feuchte:Windchill:Wind:
Aussen-T/F 101 15-06-2020 08:20:00 17.4 C 13.19 g/m*3 17.4 C 1.6 km/h
102 15-06-2020 08:25:00 17.4 C 13.04 g/m*3 17.4 C 3.2 km/h
103 15-06-2020 08:30:00 17.6 C 13.2 g/m*3 17.6 C 1.6 km/h
104 15-06-2020 08:35:00 17.7 C 13.13 g/m*3 17.7 C 3.2 km/h
105 15-06-2020 08:40:00 17.8 C 13.36 g/m*3 17.8 C 1.6 km/h
106 15-06-2020 08:45:00 17.9 C 13.28 g/m*3 17.9 C 6.4 km/h
107 15-06-2020 08:50:00 17.9 C 13.28 g/m*3 17.9 C 6.4 km/h
108 15-06-2020 08:55:00 18 C 13.21 g/m*3 18 C 4.8 km/h
109 15-06-2020 09:00:00 18.1 C 13.29 g/m*3 18.1 C 3.2 km/h
110 15-06-2020 09:05:00 18.1 C 13.13 g/m*3 18.1 C 6.4 km/h
111 15-06-2020 09:10:00 18.1 C 13.13 g/m*3 18.1 C 4.8 km/h
112 15-06-2020 09:15:00 18.2 C 13.21 g/m*3 18.2 C 3.2 km/h
113 15-06-2020 09:20:00 18.2 C 13.21 g/m*3 18.2 C 1.6 km/h
114 15-06-2020 09:25:00 18.3 C 13.45 g/m*3 18.3 C 3.2 km/h
115 15-06-2020 09:30:00 18.3 C 13.29 g/m*3 18.3 C 4.8 km/h
116 15-06-2020 09:35:00 18.3 C 13.45 g/m*3 18.3 C 6.4 km/h
117 15-06-2020 09:40:00 18.4 C 13.37 g/m*3 18.4 C 9.7 km/h
118 15-06-2020 09:45:00 18.5 C 13.45 g/m*3 18.5 C 6.4 km/h
119 15-06-2020 09:50:00 18.6 C 13.53 g/m*3 18.6 C 9.7 km/h
120 15-06-2020 09:55:00 18.8 C 13.53 g/m*3 18.8 C 4.8 km/h
121 15-06-2020 10:00:00 18.9 C 13.61 g/m*3 18.9 C 6.4 km/h
122 15-06-2020 10:05:00 19.1 C 13.77 g/m*3 19.1 C 6.4 km/h
123 15-06-2020 10:10:00 19.2 C 13.69 g/m*3 19.2 C 9.7 km/h
124 15-06-2020 10:15:00 19.2 C 13.69 g/m*3 19.2 C 8.1 km/h
125 15-06-2020 10:20:00 19.4 C 13.85 g/m*3 19.4 C 3.2 km/h
Sensor: Nr:Datum:Temp:Abs-Feuchte:Windchill:Wind:
Aussen-T/F 126 15-06-2020 10:25:00 19.5 C 13.76 g/m*3 19.5 C 9.7 km/h
127 15-06-2020 10:30:00 19.5 C 13.59 g/m*3 19.5 C 6.4 km/h
128 15-06-2020 10:35:00 19.5 C 13.59 g/m*3 19.5 C 3.2 km/h
129 15-06-2020 10:40:00 19.6 C 13.67 g/m*3 19.6 C 6.4 km/h
130 15-06-2020 10:45:00 19.6 C 13.84 g/m*3 19.6 C 4.8 km/h
131 15-06-2020 10:50:00 19.7 C 13.75 g/m*3 19.7 C 8.1 km/h
132 15-06-2020 10:55:00 19.7 C 13.58 g/m*3 19.7 C 6.4 km/h
133 15-06-2020 11:00:00 19.6 C 13.67 g/m*3 19.6 C 6.4 km/h
134 15-06-2020 11:05:00 19.7 C 13.58 g/m*3 19.7 C 8.1 km/h
135 15-06-2020 11:10:00 19.8 C 13.66 g/m*3 19.8 C 4.8 km/h
136 15-06-2020 11:15:00 20 C 14 g/m*3 20 C 3.2 km/h
137 15-06-2020 11:20:00 20.2 C 13.81 g/m*3 20.2 C 4.8 km/h
138 15-06-2020 11:25:00 20.2 C 13.81 g/m*3 20.2 C 6.4 km/h
139 15-06-2020 11:30:00 20.2 C 13.46 g/m*3 20.2 C 8.1 km/h
140 15-06-2020 11:35:00 20.2 C 13.46 g/m*3 20.2 C 6.4 km/h
141 15-06-2020 11:40:00 20.3 C 13.72 g/m*3 20.3 C 4.8 km/h
142 15-06-2020 11:45:00 20.3 C 13.54 g/m*3 20.3 C 3.2 km/h
143 15-06-2020 11:50:00 20.4 C 13.44 g/m*3 20.4 C 4.8 km/h
144 15-06-2020 11:55:00 20.5 C 13.17 g/m*3 20.5 C 4.8 km/h
145 15-06-2020 12:00:00 20.6 C 12.89 g/m*3 20.6 C 6.4 km/h
146 15-06-2020 12:05:00 20.6 C 12.53 g/m*3 20.6 C 8.1 km/h
147 15-06-2020 12:10:00 20.7 C 12.6 g/m*3 20.7 C 9.7 km/h
148 15-06-2020 12:15:00 20.6 C 12.53 g/m*3 20.6 C 8.1 km/h
149 15-06-2020 12:20:00 20.6 C 12.71 g/m*3 20.6 C 3.2 km/h
150 15-06-2020 12:25:00 20.6 C 12.71 g/m*3 20.6 C 4.8 km/h
Sensor: Nr:Datum:Temp:Abs-Feuchte:Windchill:Wind:
Aussen-T/F 151 15-06-2020 12:30:00 20.6 C 12.71 g/m*3 20.6 C 6.4 km/h
152 15-06-2020 12:35:00 20.6 C 12.53 g/m*3 20.6 C 4.8 km/h
153 15-06-2020 12:40:00 20.5 C 12.46 g/m*3 20.5 C 8.1 km/h
154 15-06-2020 12:45:00 20.5 C 12.46 g/m*3 20.5 C 8.1 km/h
155 15-06-2020 12:50:00 20.5 C 12.28 g/m*3 20.5 C 4.8 km/h
156 15-06-2020 12:55:00 20.5 C 11.92 g/m*3 20.5 C 6.4 km/h
157 15-06-2020 13:00:00 20.4 C 12.03 g/m*3 20.4 C 4.8 km/h
158 15-06-2020 13:05:00 20.4 C 12.21 g/m*3 20.4 C 4.8 km/h
159 15-06-2020 13:10:00 20.5 C 12.1 g/m*3 20.5 C 8.1 km/h
160 15-06-2020 13:15:00 20.5 C 12.1 g/m*3 20.5 C 6.4 km/h
161 15-06-2020 13:20:00 20.5 C 11.92 g/m*3 20.5 C 8.1 km/h
162 15-06-2020 13:25:00 20.5 C 12.1 g/m*3 20.5 C 3.2 km/h
163 15-06-2020 13:30:00 20.5 C 11.92 g/m*3 20.5 C 11.3 km/h
164 15-06-2020 13:35:00 20.4 C 12.03 g/m*3 20.4 C 8.1 km/h
165 15-06-2020 13:40:00 20.4 C 12.03 g/m*3 20.4 C 3.2 km/h
166 15-06-2020 13:45:00 20.4 C 11.85 g/m*3 20.4 C 6.4 km/h
167 15-06-2020 13:50:00 20.4 C 12.03 g/m*3 20.4 C 3.2 km/h
168 15-06-2020 13:55:00 20.4 C 12.03 g/m*3 20.4 C 8.1 km/h
169 15-06-2020 14:00:00 20.4 C 12.03 g/m*3 20.4 C 4.8 km/h
170 15-06-2020 14:05:00 20.5 C 12.1 g/m*3 20.5 C 0 km/h
171 15-06-2020 14:10:00 20.5 C 11.92 g/m*3 20.5 C 8.1 km/h
172 15-06-2020 14:15:00 20.6 C 12.71 g/m*3 20.6 C 3.2 km/h
173 15-06-2020 14:20:00 20.5 C 12.1 g/m*3 20.5 C 4.8 km/h
174 15-06-2020 14:25:00 20.5 C 12.46 g/m*3 20.5 C 4.8 km/h
175 15-06-2020 14:30:00 20.5 C 12.28 g/m*3 20.5 C 4.8 km/h
Sensor: Nr:Datum:Temp:Abs-Feuchte:Windchill:Wind:
Aussen-T/F 176 15-06-2020 14:35:00 20.5 C 12.28 g/m*3 20.5 C 6.4 km/h
177 15-06-2020 14:40:00 20.5 C 12.1 g/m*3 20.5 C 0 km/h
178 15-06-2020 14:45:00 20.6 C 12.53 g/m*3 20.6 C 0 km/h
179 15-06-2020 14:50:00 20.5 C 12.28 g/m*3 20.5 C 0 km/h
180 15-06-2020 14:55:00 20.6 C 12.35 g/m*3 20.6 C 0 km/h
181 15-06-2020 15:00:00 20.6 C 12.35 g/m*3 20.6 C 0 km/h
182 15-06-2020 15:05:00 20.6 C 12.53 g/m*3 20.6 C 0 km/h
183 15-06-2020 15:10:00 20.6 C 13.07 g/m*3 20.6 C 0 km/h
184 15-06-2020 15:15:00 20.6 C 12.89 g/m*3 20.6 C 0 km/h
185 15-06-2020 15:20:00 20.4 C 12.91 g/m*3 20.4 C 0 km/h
186 15-06-2020 15:25:00 20.4 C 13.44 g/m*3 20.4 C 0 km/h
187 15-06-2020 15:30:00 20.5 C 13.7 g/m*3 20.5 C 0 km/h
188 15-06-2020 15:35:00 20.6 C 13.96 g/m*3 20.6 C 0 km/h
189 15-06-2020 15:40:00 20.5 C 13.17 g/m*3 20.5 C 0 km/h
190 15-06-2020 15:45:00 20.6 C 13.24 g/m*3 20.6 C 0 km/h
191 15-06-2020 15:50:00 20.6 C 12.89 g/m*3 20.6 C 0 km/h
192 15-06-2020 15:55:00 20.7 C 12.78 g/m*3 20.7 C 0 km/h
193 15-06-2020 16:00:00 20.8 C 12.86 g/m*3 20.8 C 0 km/h
194 15-06-2020 16:05:00 20.8 C 13.04 g/m*3 20.8 C 0 km/h
195 15-06-2020 16:10:00 21 C 13.01 g/m*3 21 C 0 km/h
196 15-06-2020 16:15:00 21.1 C 13.27 g/m*3 21.1 C 0 km/h
197 15-06-2020 16:20:00 21.1 C 12.71 g/m*3 21.1 C 0 km/h
198 15-06-2020 16:25:00 21.1 C 12.71 g/m*3 21.1 C 0 km/h
199 15-06-2020 17:35:00 21.1 C 12.16 g/m*3 21.1 C 4.8 km/h
200 15-06-2020 17:40:00 21.1 C 12.16 g/m*3 21.1 C 3.2 km/h
Sensor: Nr:Datum:Temp:Abs-Feuchte:Windchill:Wind:
Aussen-T/F 201 15-06-2020 17:45:00 21.1 C 12.34 g/m*3 21.1 C 1.6 km/h
202 15-06-2020 17:50:00 21.1 C 12.16 g/m*3 21.1 C 4.8 km/h
203 15-06-2020 17:55:00 21.1 C 12.34 g/m*3 21.1 C 0 km/h
204 15-06-2020 18:00:00 21.2 C 12.42 g/m*3 21.2 C 0 km/h
205 15-06-2020 18:05:00 21.2 C 12.23 g/m*3 21.2 C 0 km/h
206 15-06-2020 18:10:00 21.3 C 12.49 g/m*3 21.3 C 0 km/h
207 15-06-2020 18:15:00 21.3 C 12.3 g/m*3 21.3 C 0 km/h
208 15-06-2020 18:20:00 21.3 C 12.49 g/m*3 21.3 C 0 km/h
209 15-06-2020 18:25:00 21.3 C 12.49 g/m*3 21.3 C 0 km/h
210 15-06-2020 18:30:00 21.4 C 12.37 g/m*3 21.4 C 0 km/h
211 15-06-2020 18:35:00 21.3 C 12.12 g/m*3 21.3 C 4.8 km/h
212 15-06-2020 18:40:00 21.3 C 12.3 g/m*3 21.3 C 1.6 km/h
213 15-06-2020 18:45:00 21.3 C 11.93 g/m*3 21.3 C 3.2 km/h
214 15-06-2020 18:50:00 21.3 C 12.12 g/m*3 21.3 C 0 km/h
215 15-06-2020 18:55:00 21.3 C 12.49 g/m*3 21.3 C 0 km/h
216 15-06-2020 19:00:00 21.4 C 12.56 g/m*3 21.4 C 0 km/h
217 15-06-2020 19:05:00 21.4 C 13.12 g/m*3 21.4 C 0 km/h
218 15-06-2020 19:10:00 21.5 C 13.39 g/m*3 21.5 C 0 km/h
219 15-06-2020 19:15:00 21.6 C 13.09 g/m*3 21.6 C 0 km/h
220 15-06-2020 19:20:00 21.6 C 13.28 g/m*3 21.6 C 0 km/h
221 15-06-2020 19:25:00 21.6 C 13.47 g/m*3 21.6 C 0 km/h
222 15-06-2020 19:30:00 21.6 C 13.66 g/m*3 21.6 C 0 km/h
223 15-06-2020 19:35:00 21.5 C 13.58 g/m*3 21.5 C 0 km/h
224 15-06-2020 19:40:00 21.3 C 13.42 g/m*3 21.3 C 0 km/h
225 15-06-2020 19:45:00 21.1 C 13.45 g/m*3 21.1 C 0 km/h
Sensor: Nr:Datum:Temp:Abs-Feuchte:Windchill:Wind:
Aussen-T/F 226 15-06-2020 19:50:00 20.8 C 13.22 g/m*3 20.8 C 3.2 km/h
227 15-06-2020 19:55:00 20.5 C 12.99 g/m*3 20.5 C 3.2 km/h
228 15-06-2020 20:00:00 20.3 C 12.84 g/m*3 20.3 C 4.8 km/h
229 15-06-2020 20:05:00 20.1 C 12.69 g/m*3 20.1 C 3.2 km/h
230 15-06-2020 20:10:00 19.9 C 12.71 g/m*3 19.9 C 0 km/h
231 15-06-2020 20:15:00 19.8 C 12.64 g/m*3 19.8 C 3.2 km/h
232 15-06-2020 20:20:00 19.7 C 12.91 g/m*3 19.7 C 3.2 km/h
233 15-06-2020 20:25:00 19.6 C 13 g/m*3 19.6 C 0 km/h
234 15-06-2020 20:30:00 19.5 C 12.92 g/m*3 19.5 C 3.2 km/h
235 15-06-2020 20:35:00 19.4 C 12.68 g/m*3 19.4 C 3.2 km/h
236 15-06-2020 20:40:00 19.3 C 12.77 g/m*3 19.3 C 0 km/h
237 15-06-2020 20:45:00 19.2 C 12.7 g/m*3 19.2 C 4.8 km/h
238 15-06-2020 20:50:00 19.1 C 12.62 g/m*3 19.1 C 4.8 km/h
239 15-06-2020 20:55:00 19.1 C 12.46 g/m*3 19.1 C 4.8 km/h
240 15-06-2020 21:00:00 18.9 C 12.31 g/m*3 18.9 C 4.8 km/h
241 15-06-2020 21:05:00 18.9 C 12.47 g/m*3 18.9 C 4.8 km/h
242 15-06-2020 21:10:00 18.8 C 12.4 g/m*3 18.8 C 6.4 km/h
243 15-06-2020 21:15:00 18.8 C 12.4 g/m*3 18.8 C 4.8 km/h
244 15-06-2020 21:20:00 18.7 C 12.33 g/m*3 18.7 C 4.8 km/h
245 15-06-2020 21:25:00 18.7 C 12.49 g/m*3 18.7 C 4.8 km/h
246 15-06-2020 21:30:00 18.6 C 12.57 g/m*3 18.6 C 4.8 km/h
247 15-06-2020 21:35:00 18.5 C 12.5 g/m*3 18.5 C 4.8 km/h
248 15-06-2020 21:40:00 18.4 C 12.58 g/m*3 18.4 C 3.2 km/h
249 15-06-2020 21:45:00 18.4 C 12.58 g/m*3 18.4 C 0 km/h
250 15-06-2020 21:50:00 18.3 C 12.51 g/m*3 18.3 C 3.2 km/h
Sensor: Nr:Datum:Temp:Abs-Feuchte:Windchill:Wind:
Aussen-T/F 251 15-06-2020 21:55:00 18.2 C 12.43 g/m*3 18.2 C 3.2 km/h
252 15-06-2020 22:00:00 18.1 C 12.36 g/m*3 18.1 C 3.2 km/h
253 15-06-2020 22:05:00 18 C 12.44 g/m*3 18 C 0 km/h
254 15-06-2020 22:10:00 17.9 C 12.37 g/m*3 17.9 C 0 km/h
255 15-06-2020 22:15:00 17.8 C 12.45 g/m*3 17.8 C 0 km/h
256 15-06-2020 22:20:00 17.7 C 12.37 g/m*3 17.7 C 0 km/h
257 15-06-2020 22:25:00 17.6 C 12.3 g/m*3 17.6 C 0 km/h
258 15-06-2020 22:30:00 17.6 C 12.3 g/m*3 17.6 C 0 km/h
259 15-06-2020 22:35:00 17.5 C 12.23 g/m*3 17.5 C 0 km/h
260 15-06-2020 22:40:00 17.4 C 12.3 g/m*3 17.4 C 0 km/h
261 15-06-2020 22:45:00 17.4 C 12.3 g/m*3 17.4 C 0 km/h
262 15-06-2020 22:50:00 17.4 C 12.3 g/m*3 17.4 C 0 km/h
263 15-06-2020 22:55:00 17.3 C 12.37 g/m*3 17.3 C 0 km/h
264 15-06-2020 23:00:00 17.3 C 12.37 g/m*3 17.3 C 0 km/h
265 15-06-2020 23:05:00 17.3 C 12.37 g/m*3 17.3 C 0 km/h
266 15-06-2020 23:10:00 17.2 C 12.3 g/m*3 17.2 C 0 km/h
267 15-06-2020 23:15:00 17.2 C 12.3 g/m*3 17.2 C 0 km/h
268 15-06-2020 23:20:00 17.2 C 12.3 g/m*3 17.2 C 0 km/h
269 15-06-2020 23:25:00 17.2 C 12.3 g/m*3 17.2 C 0 km/h
270 15-06-2020 23:30:00 17.1 C 12.23 g/m*3 17.1 C 0 km/h
271 15-06-2020 23:35:00 17.1 C 12.37 g/m*3 17.1 C 0 km/h
272 15-06-2020 23:40:00 17.1 C 12.37 g/m*3 17.1 C 0 km/h
273 15-06-2020 23:45:00 17.1 C 12.37 g/m*3 17.1 C 0 km/h
274 15-06-2020 23:50:00 17.1 C 12.37 g/m*3 17.1 C 0 km/h
275 15-06-2020 23:55:00 17.1 C 12.37 g/m*3 17.1 C 0 km/h
Sensor: Nr:Datum:Temp:Abs-Feuchte:Windchill:Wind:
Aussen-T/F 276 16-06-2020 00:00:00 17.1 C 12.52 g/m*3 17.1 C 0 km/h
277 16-06-2020 00:05:00 17.1 C 12.52 g/m*3 17.1 C 0 km/h
278 16-06-2020 00:10:00 17.1 C 12.37 g/m*3 17.1 C 0 km/h
279 16-06-2020 00:15:00 17.1 C 12.52 g/m*3 17.1 C 0 km/h
280 16-06-2020 00:20:00 17 C 12.3 g/m*3 17 C 0 km/h
281 16-06-2020 00:25:00 17.1 C 12.37 g/m*3 17.1 C 0 km/h
282 16-06-2020 00:30:00 17.1 C 12.52 g/m*3 17.1 C 0 km/h
283 16-06-2020 00:35:00 17.1 C 12.52 g/m*3 17.1 C 0 km/h
284 16-06-2020 00:40:00 17.2 C 12.89 g/m*3 17.2 C 0 km/h
285 16-06-2020 00:45:00 17.2 C 12.89 g/m*3 17.2 C 0 km/h
286 16-06-2020 00:50:00 17.2 C 12.89 g/m*3 17.2 C 0 km/h
287 16-06-2020 00:55:00 17.1 C 12.96 g/m*3 17.1 C 0 km/h
288 16-06-2020 01:00:00 17.1 C 13.1 g/m*3 17.1 C 0 km/h
289 16-06-2020 01:05:00 17.1 C 13.1 g/m*3 17.1 C 0 km/h
290 16-06-2020 01:10:00 17 C 13.02 g/m*3 17 C 0 km/h
291 16-06-2020 01:15:00 16.9 C 12.94 g/m*3 16.9 C 0 km/h
292 16-06-2020 01:20:00 16.9 C 12.94 g/m*3 16.9 C 0 km/h
293 16-06-2020 01:25:00 16.8 C 12.87 g/m*3 16.8 C 0 km/h
294 16-06-2020 01:30:00 16.8 C 13.01 g/m*3 16.8 C 0 km/h
295 16-06-2020 01:35:00 16.8 C 13.01 g/m*3 16.8 C 0 km/h
296 16-06-2020 01:40:00 16.8 C 13.15 g/m*3 16.8 C 0 km/h
297 16-06-2020 01:45:00 16.8 C 13.15 g/m*3 16.8 C 0 km/h
298 16-06-2020 01:50:00 16.8 C 13.15 g/m*3 16.8 C 0 km/h
299 16-06-2020 01:55:00 16.7 C 13.07 g/m*3 16.7 C 0 km/h
300 16-06-2020 02:00:00 16.7 C 13.07 g/m*3 16.7 C 0 km/h
Sensor: Nr:Datum:Temp:Abs-Feuchte:Windchill:Wind:
Aussen-T/F 301 16-06-2020 02:05:00 16.7 C 13.22 g/m*3 16.7 C 0 km/h
302 16-06-2020 02:10:00 16.6 C 13.14 g/m*3 16.6 C 0 km/h
303 16-06-2020 02:15:00 16.6 C 13.14 g/m*3 16.6 C 0 km/h
304 16-06-2020 02:20:00 16.5 C 13.06 g/m*3 16.5 C 0 km/h
305 16-06-2020 02:25:00 16.4 C 12.98 g/m*3 16.4 C 0 km/h
306 16-06-2020 02:30:00 16.4 C 12.98 g/m*3 16.4 C 0 km/h
307 16-06-2020 02:35:00 16.4 C 12.98 g/m*3 16.4 C 0 km/h
308 16-06-2020 02:40:00 16.4 C 12.98 g/m*3 16.4 C 0 km/h
309 16-06-2020 02:45:00 16.3 C 12.9 g/m*3 16.3 C 0 km/h
310 16-06-2020 02:50:00 16.3 C 12.9 g/m*3 16.3 C 0 km/h
311 16-06-2020 02:55:00 16.2 C 12.82 g/m*3 16.2 C 0 km/h
312 16-06-2020 03:00:00 16.3 C 13.04 g/m*3 16.3 C 0 km/h
313 16-06-2020 03:05:00 16.2 C 12.96 g/m*3 16.2 C 0 km/h
314 16-06-2020 03:10:00 16.2 C 12.96 g/m*3 16.2 C 0 km/h
315 16-06-2020 03:15:00 16.2 C 12.96 g/m*3 16.2 C 0 km/h
316 16-06-2020 03:20:00 16.2 C 12.96 g/m*3 16.2 C 0 km/h
317 16-06-2020 03:25:00 16.2 C 12.96 g/m*3 16.2 C 0 km/h
318 16-06-2020 03:30:00 16.2 C 12.96 g/m*3 16.2 C 0 km/h
319 16-06-2020 03:35:00 16.2 C 12.96 g/m*3 16.2 C 0 km/h
320 16-06-2020 03:40:00 16.2 C 12.96 g/m*3 16.2 C 0 km/h
321 16-06-2020 03:45:00 16.2 C 12.96 g/m*3 16.2 C 0 km/h
322 16-06-2020 03:50:00 16.2 C 12.96 g/m*3 16.2 C 0 km/h
323 16-06-2020 03:55:00 16.1 C 13.02 g/m*3 16.1 C 0 km/h
324 16-06-2020 04:00:00 16.1 C 13.02 g/m*3 16.1 C 0 km/h
325 16-06-2020 04:05:00 16.1 C 13.02 g/m*3 16.1 C 0 km/h
Sensor: Nr:Datum:Temp:Abs-Feuchte:Windchill:Wind:
Aussen-T/F 326 16-06-2020 04:10:00 16.1 C 13.02 g/m*3 16.1 C 0 km/h
327 16-06-2020 04:15:00 16.1 C 13.02 g/m*3 16.1 C 0 km/h
328 16-06-2020 04:20:00 16.1 C 13.02 g/m*3 16.1 C 0 km/h
329 16-06-2020 04:25:00 16.1 C 13.02 g/m*3 16.1 C 0 km/h
330 16-06-2020 04:30:00 16.1 C 13.02 g/m*3 16.1 C 0 km/h
331 16-06-2020 04:35:00 16.1 C 13.02 g/m*3 16.1 C 0 km/h
332 16-06-2020 04:40:00 16.1 C 13.02 g/m*3 16.1 C 0 km/h
333 16-06-2020 04:45:00 16.1 C 13.02 g/m*3 16.1 C 0 km/h
334 16-06-2020 04:50:00 16.2 C 13.1 g/m*3 16.2 C 0 km/h
335 16-06-2020 04:55:00 16.2 C 13.1 g/m*3 16.2 C 0 km/h
336 16-06-2020 05:00:00 16.2 C 13.1 g/m*3 16.2 C 0 km/h
337 16-06-2020 05:05:00 16.2 C 13.1 g/m*3 16.2 C 0 km/h
338 16-06-2020 05:10:00 16.1 C 13.02 g/m*3 16.1 C 0 km/h
339 16-06-2020 05:15:00 16.1 C 13.02 g/m*3 16.1 C 0 km/h
340 16-06-2020 05:20:00 16.1 C 13.02 g/m*3 16.1 C 0 km/h
341 16-06-2020 05:25:00 16.1 C 13.02 g/m*3 16.1 C 0 km/h
342 16-06-2020 05:30:00 16 C 12.94 g/m*3 16 C 0 km/h
343 16-06-2020 05:35:00 16 C 12.94 g/m*3 16 C 1.6 km/h
344 16-06-2020 05:40:00 16 C 12.94 g/m*3 16 C 1.6 km/h
345 16-06-2020 05:45:00 16 C 12.94 g/m*3 16 C 0 km/h
346 16-06-2020 05:50:00 16 C 12.94 g/m*3 16 C 0 km/h
347 16-06-2020 05:55:00 15.9 C 12.87 g/m*3 15.9 C 0 km/h
348 16-06-2020 06:00:00 15.9 C 12.87 g/m*3 15.9 C 0 km/h
349 16-06-2020 06:05:00 15.9 C 12.87 g/m*3 15.9 C 1.6 km/h
350 16-06-2020 06:10:00 15.9 C 12.87 g/m*3 15.9 C 1.6 km/h
Sensor: Nr:Datum:Temp:Abs-Feuchte:Windchill:Wind:
Aussen-T/F 351 16-06-2020 06:15:00 15.9 C 12.87 g/m*3 15.9 C 0 km/h
352 16-06-2020 06:20:00 15.9 C 12.87 g/m*3 15.9 C 0 km/h
353 16-06-2020 06:25:00 15.9 C 13 g/m*3 15.9 C 0 km/h
354 16-06-2020 06:30:00 15.9 C 13 g/m*3 15.9 C 0 km/h
355 16-06-2020 06:35:00 16 C 13.08 g/m*3 16 C 0 km/h
356 16-06-2020 06:40:00 16 C 13.08 g/m*3 16 C 1.6 km/h
357 16-06-2020 06:45:00 16 C 13.08 g/m*3 16 C 0 km/h
358 16-06-2020 06:50:00 16 C 13.08 g/m*3 16 C 0 km/h
359 16-06-2020 06:55:00 16 C 13.08 g/m*3 16 C 0 km/h
360 16-06-2020 07:00:00 16 C 13.08 g/m*3 16 C 0 km/h
361 16-06-2020 07:05:00 16 C 13.08 g/m*3 16 C 0 km/h
362 16-06-2020 07:10:00 16 C 13.08 g/m*3 16 C 0 km/h
363 16-06-2020 07:15:00 16.1 C 13.16 g/m*3 16.1 C 0 km/h
364 16-06-2020 07:20:00 16.1 C 13.16 g/m*3 16.1 C 0 km/h
365 16-06-2020 07:25:00 16.1 C 13.16 g/m*3 16.1 C 0 km/h
366 16-06-2020 07:30:00 16.2 C 13.24 g/m*3 16.2 C 0 km/h
367 16-06-2020 07:35:00 16.2 C 13.24 g/m*3 16.2 C 0 km/h
368 16-06-2020 07:40:00 16.3 C 13.32 g/m*3 16.3 C 0 km/h
369 16-06-2020 07:45:00 16.3 C 13.32 g/m*3 16.3 C 0 km/h
370 16-06-2020 07:50:00 16.4 C 13.4 g/m*3 16.4 C 0 km/h
371 16-06-2020 07:55:00 16.5 C 13.48 g/m*3 16.5 C 1.6 km/h
372 16-06-2020 08:00:00 16.6 C 13.56 g/m*3 16.6 C 0 km/h
373 16-06-2020 08:05:00 16.6 C 13.56 g/m*3 16.6 C 4.8 km/h
374 16-06-2020 08:10:00 16.6 C 13.56 g/m*3 16.6 C 1.6 km/h
375 16-06-2020 08:15:00 16.6 C 13.56 g/m*3 16.6 C 1.6 km/h
Sensor: Nr:Datum:Temp:Abs-Feuchte:Windchill:Wind:
Aussen-T/F 376 16-06-2020 08:20:00 16.6 C 13.56 g/m*3 16.6 C 1.6 km/h
377 16-06-2020 08:25:00 16.6 C 13.56 g/m*3 16.6 C 1.6 km/h
378 16-06-2020 08:30:00 16.6 C 13.56 g/m*3 16.6 C 0 km/h
379 16-06-2020 08:35:00 16.7 C 13.64 g/m*3 16.7 C 4.8 km/h
380 16-06-2020 08:40:00 16.7 C 13.64 g/m*3 16.7 C 0 km/h
381 16-06-2020 08:45:00 16.8 C 13.73 g/m*3 16.8 C 1.6 km/h
382 16-06-2020 08:50:00 16.9 C 13.81 g/m*3 16.9 C 3.2 km/h
383 16-06-2020 08:55:00 16.9 C 13.81 g/m*3 16.9 C 4.8 km/h
384 16-06-2020 09:00:00 16.9 C 13.81 g/m*3 16.9 C 6.4 km/h
385 16-06-2020 09:05:00 16.9 C 13.81 g/m*3 16.9 C 1.6 km/h
386 16-06-2020 09:10:00 17 C 13.89 g/m*3 17 C 1.6 km/h
387 16-06-2020 09:15:00 17 C 13.89 g/m*3 17 C 3.2 km/h
388 16-06-2020 09:20:00 17.1 C 13.97 g/m*3 17.1 C 1.6 km/h
389 16-06-2020 09:25:00 17.1 C 13.97 g/m*3 17.1 C 3.2 km/h
390 16-06-2020 09:30:00 17.2 C 14.06 g/m*3 17.2 C 1.6 km/h
391 16-06-2020 09:35:00 17.2 C 14.06 g/m*3 17.2 C 3.2 km/h
392 16-06-2020 09:40:00 17.2 C 14.06 g/m*3 17.2 C 1.6 km/h
393 16-06-2020 09:45:00 17.3 C 14.14 g/m*3 17.3 C 3.2 km/h
394 16-06-2020 09:50:00 17.3 C 14.14 g/m*3 17.3 C 1.6 km/h
395 16-06-2020 09:55:00 17.3 C 14.14 g/m*3 17.3 C 3.2 km/h
396 16-06-2020 10:00:00 17.5 C 14.31 g/m*3 17.5 C 1.6 km/h
397 16-06-2020 10:05:00 17.6 C 14.4 g/m*3 17.6 C 0 km/h
398 16-06-2020 10:10:00 17.7 C 14.48 g/m*3 17.7 C 0 km/h
399 16-06-2020 10:15:00 17.7 C 14.33 g/m*3 17.7 C 1.6 km/h
400 16-06-2020 10:20:00 17.7 C 14.33 g/m*3 17.7 C 0 km/h
Sensor: Nr:Datum:Temp:Abs-Feuchte:Windchill:Wind:
Aussen-T/F 401 16-06-2020 10:25:00 17.8 C 14.42 g/m*3 17.8 C 0 km/h
402 16-06-2020 10:30:00 17.8 C 14.27 g/m*3 17.8 C 0 km/h
403 16-06-2020 10:35:00 17.9 C 14.35 g/m*3 17.9 C 0 km/h
404 16-06-2020 10:40:00 18.1 C 14.52 g/m*3 18.1 C 0 km/h
405 16-06-2020 10:45:00 18.2 C 14.77 g/m*3 18.2 C 0 km/h
406 16-06-2020 10:50:00 18.5 C 14.87 g/m*3 18.5 C 0 km/h
407 16-06-2020 10:55:00 18.7 C 15.05 g/m*3 18.7 C 0 km/h
408 16-06-2020 11:00:00 18.7 C 14.89 g/m*3 18.7 C 0 km/h
409 16-06-2020 11:05:00 18.7 C 14.73 g/m*3 18.7 C 0 km/h
410 16-06-2020 11:10:00 18.6 C 14.48 g/m*3 18.6 C 0 km/h
411 16-06-2020 11:15:00 18.8 C 14.82 g/m*3 18.8 C 0 km/h
412 16-06-2020 11:20:00 18.9 C 14.74 g/m*3 18.9 C 0 km/h
413 16-06-2020 11:25:00 18.9 C 14.58 g/m*3 18.9 C 3.2 km/h
414 16-06-2020 11:30:00 19 C 14.34 g/m*3 19 C 1.6 km/h
415 16-06-2020 11:35:00 19.1 C 14.59 g/m*3 19.1 C 1.6 km/h
416 16-06-2020 11:40:00 19.2 C 14.68 g/m*3 19.2 C 1.6 km/h
417 16-06-2020 11:45:00 19.3 C 14.6 g/m*3 19.3 C 4.8 km/h
418 16-06-2020 11:50:00 19.4 C 14.52 g/m*3 19.4 C 6.4 km/h
419 16-06-2020 11:55:00 19.6 C 14.35 g/m*3 19.6 C 3.2 km/h
420 16-06-2020 12:00:00 19.7 C 14.43 g/m*3 19.7 C 4.8 km/h
421 16-06-2020 12:05:00 19.7 C 14.09 g/m*3 19.7 C 4.8 km/h
422 16-06-2020 12:10:00 19.8 C 14.35 g/m*3 19.8 C 3.2 km/h
423 16-06-2020 12:15:00 19.9 C 14.26 g/m*3 19.9 C 4.8 km/h
424 16-06-2020 12:20:00 19.8 C 14.18 g/m*3 19.8 C 4.8 km/h
425 16-06-2020 12:25:00 19.8 C 13.84 g/m*3 19.8 C 3.2 km/h
Sensor: Nr:Datum:Temp:Abs-Feuchte:Windchill:Wind:
Aussen-T/F 426 16-06-2020 12:30:00 19.8 C 14.01 g/m*3 19.8 C 1.6 km/h
427 16-06-2020 12:35:00 20 C 14.34 g/m*3 20 C 1.6 km/h
428 16-06-2020 12:40:00 20.1 C 14.43 g/m*3 20.1 C 3.2 km/h
429 16-06-2020 12:45:00 20.2 C 14.69 g/m*3 20.2 C 3.2 km/h
430 16-06-2020 12:50:00 20.1 C 14.43 g/m*3 20.1 C 4.8 km/h
431 16-06-2020 12:55:00 20.1 C 14.08 g/m*3 20.1 C 4.8 km/h
432 16-06-2020 13:00:00 20.1 C 14.25 g/m*3 20.1 C 3.2 km/h
433 16-06-2020 13:05:00 20.1 C 14.08 g/m*3 20.1 C 6.4 km/h
434 16-06-2020 13:10:00 20.2 C 14.16 g/m*3 20.2 C 6.4 km/h
435 16-06-2020 13:15:00 20.2 C 14.16 g/m*3 20.2 C 6.4 km/h
436 16-06-2020 13:20:00 20.3 C 14.07 g/m*3 20.3 C 6.4 km/h
437 16-06-2020 13:25:00 20.4 C 13.98 g/m*3 20.4 C 4.8 km/h
438 16-06-2020 13:30:00 20.6 C 13.78 g/m*3 20.6 C 6.4 km/h
439 16-06-2020 13:35:00 20.6 C 13.6 g/m*3 20.6 C 6.4 km/h
440 16-06-2020 13:40:00 20.7 C 13.32 g/m*3 20.7 C 8.1 km/h
441 16-06-2020 13:45:00 20.8 C 13.4 g/m*3 20.8 C 9.7 km/h
442 16-06-2020 13:50:00 20.9 C 13.84 g/m*3 20.9 C 9.7 km/h
443 16-06-2020 13:55:00 20.9 C 13.66 g/m*3 20.9 C 4.8 km/h
444 16-06-2020 14:00:00 21 C 13.74 g/m*3 21 C 6.4 km/h
445 16-06-2020 14:05:00 21.1 C 14.37 g/m*3 21.1 C 8.1 km/h
446 16-06-2020 14:10:00 21.1 C 14.74 g/m*3 21.1 C 4.8 km/h
447 16-06-2020 14:15:00 21.1 C 14.19 g/m*3 21.1 C 0 km/h
448 16-06-2020 14:20:00 21.1 C 14.56 g/m*3 21.1 C 0 km/h
449 16-06-2020 14:25:00 21.2 C 14.27 g/m*3 21.2 C 3.2 km/h
450 16-06-2020 14:30:00 21.2 C 14.46 g/m*3 21.2 C 0 km/h
Sensor: Nr:Datum:Temp:Abs-Feuchte:Windchill:Wind:
Aussen-T/F 451 16-06-2020 14:35:00 21.1 C 13.82 g/m*3 21.1 C 1.6 km/h
452 16-06-2020 14:40:00 21.1 C 14 g/m*3 21.1 C 1.6 km/h
453 16-06-2020 14:45:00 21.1 C 14 g/m*3 21.1 C 0 km/h
454 16-06-2020 14:50:00 21.2 C 14.27 g/m*3 21.2 C 0 km/h
455 16-06-2020 14:55:00 21.3 C 14.54 g/m*3 21.3 C 0 km/h
456 16-06-2020 15:00:00 21.3 C 14.54 g/m*3 21.3 C 0 km/h
457 16-06-2020 15:05:00 21.3 C 14.17 g/m*3 21.3 C 0 km/h
458 16-06-2020 15:10:00 21.4 C 14.62 g/m*3 21.4 C 0 km/h
459 16-06-2020 15:15:00 21.6 C 14.41 g/m*3 21.6 C 3.2 km/h
460 16-06-2020 15:20:00 21.6 C 14.79 g/m*3 21.6 C 3.2 km/h
461 16-06-2020 15:25:00 21.6 C 14.22 g/m*3 21.6 C 4.8 km/h
462 16-06-2020 15:30:00 21.7 C 14.69 g/m*3 21.7 C 4.8 km/h
463 16-06-2020 15:35:00 21.5 C 14.33 g/m*3 21.5 C 6.4 km/h
464 16-06-2020 15:40:00 21.4 C 14.62 g/m*3 21.4 C 1.6 km/h
465 16-06-2020 15:45:00 21.3 C 14.73 g/m*3 21.3 C 0 km/h
466 16-06-2020 15:50:00 21.1 C 13.82 g/m*3 21.1 C 6.4 km/h
467 16-06-2020 15:55:00 20.7 C 13.68 g/m*3 20.7 C 9.7 km/h
468 16-06-2020 16:00:00 20.2 C 13.64 g/m*3 20.2 C 3.2 km/h
469 16-06-2020 16:05:00 19.8 C 13.32 g/m*3 19.8 C 3.2 km/h
470 16-06-2020 16:10:00 19.7 C 13.92 g/m*3 19.7 C 4.8 km/h
471 16-06-2020 16:15:00 19.4 C 13.68 g/m*3 19.4 C 6.4 km/h
472 16-06-2020 16:20:00 19.3 C 13.93 g/m*3 19.3 C 4.8 km/h
473 16-06-2020 16:25:00 19.1 C 13.93 g/m*3 19.1 C 0 km/h
474 16-06-2020 16:30:00 19 C 14.01 g/m*3 19 C 0 km/h
475 16-06-2020 16:35:00 18.8 C 13.85 g/m*3 18.8 C 3.2 km/h
Sensor: Nr:Datum:Temp:Abs-Feuchte:Windchill:Wind:
Aussen-T/F 476 16-06-2020 16:40:00 18.4 C 13.68 g/m*3 18.4 C 4.8 km/h
477 16-06-2020 16:45:00 18.3 C 13.76 g/m*3 18.3 C 3.2 km/h
478 16-06-2020 16:50:00 18.2 C 13.83 g/m*3 18.2 C 0 km/h
479 16-06-2020 16:55:00 18.1 C 13.75 g/m*3 18.1 C 0 km/h
480 16-06-2020 17:00:00 18.2 C 13.99 g/m*3 18.2 C 0 km/h
481 16-06-2020 17:05:00 18.3 C 14.07 g/m*3 18.3 C 0 km/h
482 16-06-2020 17:10:00 18.3 C 14.07 g/m*3 18.3 C 0 km/h
483 16-06-2020 17:15:00 18.3 C 13.92 g/m*3 18.3 C 0 km/h
484 16-06-2020 17:20:00 18.3 C 13.92 g/m*3 18.3 C 0 km/h
485 16-06-2020 17:25:00 18.3 C 13.92 g/m*3 18.3 C 0 km/h
486 16-06-2020 17:30:00 18.3 C 14.07 g/m*3 18.3 C 0 km/h
487 16-06-2020 17:35:00 18.4 C 14 g/m*3 18.4 C 0 km/h
488 16-06-2020 17:40:00 18.6 C 14.32 g/m*3 18.6 C 1.6 km/h
489 16-06-2020 17:45:00 18.6 C 14.17 g/m*3 18.6 C 1.6 km/h
490 16-06-2020 17:50:00 18.5 C 13.61 g/m*3 18.5 C 0 km/h
491 16-06-2020 17:55:00 18.6 C 13.69 g/m*3 18.6 C 3.2 km/h
492 16-06-2020 18:00:00 18.6 C 13.85 g/m*3 18.6 C 3.2 km/h
493 16-06-2020 18:05:00 18.7 C 14.09 g/m*3 18.7 C 1.6 km/h
494 16-06-2020 18:10:00 18.7 C 14.09 g/m*3 18.7 C 3.2 km/h
495 16-06-2020 18:15:00 18.8 C 14.33 g/m*3 18.8 C 3.2 km/h
496 16-06-2020 18:20:00 18.8 C 14.49 g/m*3 18.8 C 3.2 km/h
497 16-06-2020 18:25:00 18.8 C 14.49 g/m*3 18.8 C 1.6 km/h
498 16-06-2020 18:30:00 18.8 C 14.49 g/m*3 18.8 C 3.2 km/h
499 16-06-2020 18:35:00 18.8 C 14.33 g/m*3 18.8 C 0 km/h
500 16-06-2020 18:40:00 18.8 C 14.33 g/m*3 18.8 C 1.6 km/h
Sensor: Nr:Datum:Temp:Abs-Feuchte:Windchill:Wind:
Aussen-T/F 501 16-06-2020 18:45:00 18.9 C 14.58 g/m*3 18.9 C 0 km/h
502 16-06-2020 18:50:00 19.1 C 14.59 g/m*3 19.1 C 4.8 km/h
503 16-06-2020 18:55:00 19.2 C 14.35 g/m*3 19.2 C 3.2 km/h
504 16-06-2020 19:00:00 19.4 C 14.68 g/m*3 19.4 C 6.4 km/h
505 16-06-2020 19:05:00 19.8 C 14.86 g/m*3 19.8 C 4.8 km/h
506 16-06-2020 19:10:00 20.2 C 14.86 g/m*3 20.2 C 6.4 km/h
507 16-06-2020 19:15:00 20.2 C 14.69 g/m*3 20.2 C 6.4 km/h
508 16-06-2020 19:20:00 20.2 C 14.86 g/m*3 20.2 C 6.4 km/h
509 16-06-2020 19:25:00 20.4 C 15.21 g/m*3 20.4 C 4.8 km/h
510 16-06-2020 19:30:00 20.6 C 15.03 g/m*3 20.6 C 6.4 km/h
511 16-06-2020 19:35:00 20.6 C 14.86 g/m*3 20.6 C 6.4 km/h
512 16-06-2020 19:40:00 20.6 C 15.03 g/m*3 20.6 C 6.4 km/h
513 16-06-2020 19:45:00 20.6 C 15.03 g/m*3 20.6 C 6.4 km/h
514 16-06-2020 19:50:00 20.6 C 15.03 g/m*3 20.6 C 6.4 km/h
515 16-06-2020 19:55:00 20.6 C 14.86 g/m*3 20.6 C 6.4 km/h
516 16-06-2020 20:00:00 20.4 C 14.68 g/m*3 20.4 C 8.1 km/h
517 16-06-2020 20:05:00 20.4 C 14.68 g/m*3 20.4 C 8.1 km/h
518 16-06-2020 20:10:00 20.6 C 14.86 g/m*3 20.6 C 3.2 km/h
519 16-06-2020 20:15:00 20.7 C 14.94 g/m*3 20.7 C 3.2 km/h
520 16-06-2020 20:20:00 20.8 C 14.85 g/m*3 20.8 C 1.6 km/h
521 16-06-2020 20:25:00 20.7 C 14.4 g/m*3 20.7 C 0 km/h
522 16-06-2020 20:30:00 20.7 C 14.58 g/m*3 20.7 C 0 km/h
523 16-06-2020 20:35:00 20.7 C 14.58 g/m*3 20.7 C 0 km/h
524 16-06-2020 20:40:00 20.8 C 14.67 g/m*3 20.8 C 0 km/h
525 16-06-2020 20:45:00 20.7 C 14.58 g/m*3 20.7 C 0 km/h
Sensor: Nr:Datum:Temp:Abs-Feuchte:Windchill:Wind:
Aussen-T/F 526 16-06-2020 20:50:00 20.7 C 14.58 g/m*3 20.7 C 0 km/h
527 16-06-2020 20:55:00 20.6 C 14.5 g/m*3 20.6 C 0 km/h
528 16-06-2020 21:00:00 20.6 C 14.86 g/m*3 20.6 C 0 km/h
529 16-06-2020 21:05:00 20.4 C 14.68 g/m*3 20.4 C 0 km/h
530 16-06-2020 21:10:00 20.2 C 14.51 g/m*3 20.2 C 0 km/h
531 16-06-2020 21:15:00 19.9 C 14.26 g/m*3 19.9 C 0 km/h
532 16-06-2020 21:20:00 19.7 C 14.26 g/m*3 19.7 C 0 km/h
533 16-06-2020 21:25:00 19.3 C 14.1 g/m*3 19.3 C 4.8 km/h
534 16-06-2020 21:30:00 18.9 C 13.77 g/m*3 18.9 C 4.8 km/h
535 16-06-2020 21:35:00 18.6 C 13.69 g/m*3 18.6 C 3.2 km/h
536 16-06-2020 21:40:00 18.3 C 13.6 g/m*3 18.3 C 4.8 km/h
537 16-06-2020 21:45:00 18 C 13.52 g/m*3 18 C 3.2 km/h
538 16-06-2020 21:50:00 17.8 C 13.36 g/m*3 17.8 C 4.8 km/h
539 16-06-2020 21:55:00 17.6 C 13.35 g/m*3 17.6 C 4.8 km/h
540 16-06-2020 22:00:00 17.4 C 13.19 g/m*3 17.4 C 1.6 km/h
541 16-06-2020 22:05:00 17.3 C 13.11 g/m*3 17.3 C 0 km/h
542 16-06-2020 22:10:00 17.1 C 12.96 g/m*3 17.1 C 3.2 km/h
543 16-06-2020 22:15:00 16.9 C 12.94 g/m*3 16.9 C 0 km/h
544 16-06-2020 22:20:00 16.8 C 12.87 g/m*3 16.8 C 3.2 km/h
545 16-06-2020 22:25:00 16.7 C 12.93 g/m*3 16.7 C 1.6 km/h
546 16-06-2020 22:30:00 16.6 C 12.71 g/m*3 16.6 C 0 km/h
547 16-06-2020 22:35:00 16.5 C 12.78 g/m*3 16.5 C 3.2 km/h
548 16-06-2020 22:40:00 16.4 C 12.7 g/m*3 16.4 C 3.2 km/h
549 16-06-2020 22:45:00 16.3 C 12.62 g/m*3 16.3 C 0 km/h
550 16-06-2020 22:50:00 16.2 C 12.55 g/m*3 16.2 C 1.6 km/h
Sensor: Nr:Datum:Temp:Abs-Feuchte:Windchill:Wind:
Aussen-T/F 551 16-06-2020 22:55:00 16.1 C 12.61 g/m*3 16.1 C 0 km/h
552 16-06-2020 23:00:00 15.9 C 12.46 g/m*3 15.9 C 1.6 km/h
553 16-06-2020 23:05:00 15.8 C 12.38 g/m*3 15.8 C 0 km/h
554 16-06-2020 23:10:00 15.7 C 12.31 g/m*3 15.7 C 0 km/h
555 16-06-2020 23:15:00 15.6 C 12.23 g/m*3 15.6 C 0 km/h
556 16-06-2020 23:20:00 15.6 C 12.23 g/m*3 15.6 C 0 km/h
557 16-06-2020 23:25:00 15.4 C 12.22 g/m*3 15.4 C 0 km/h
558 16-06-2020 23:30:00 15.4 C 12.22 g/m*3 15.4 C 0 km/h
559 16-06-2020 23:35:00 15.3 C 12.14 g/m*3 15.3 C 0 km/h
560 16-06-2020 23:40:00 15.2 C 12.07 g/m*3 15.2 C 0 km/h
561 16-06-2020 23:45:00 15.1 C 12 g/m*3 15.1 C 0 km/h
562 16-06-2020 23:50:00 15 C 11.93 g/m*3 15 C 0 km/h
563 16-06-2020 23:55:00 14.9 C 11.85 g/m*3 14.9 C 0 km/h
564 17-06-2020 00:00:00 14.9 C 11.98 g/m*3 14.9 C 0 km/h
565 17-06-2020 00:05:00 14.8 C 11.91 g/m*3 14.8 C 0 km/h
566 17-06-2020 00:10:00 14.8 C 11.91 g/m*3 14.8 C 0 km/h
567 17-06-2020 00:15:00 14.7 C 11.83 g/m*3 14.7 C 0 km/h
568 17-06-2020 00:20:00 14.7 C 11.83 g/m*3 14.7 C 0 km/h
569 17-06-2020 00:25:00 14.7 C 11.83 g/m*3 14.7 C 0 km/h
570 17-06-2020 00:30:00 14.6 C 11.76 g/m*3 14.6 C 0 km/h
571 17-06-2020 00:35:00 14.6 C 11.76 g/m*3 14.6 C 0 km/h
572 17-06-2020 00:40:00 14.4 C 11.62 g/m*3 14.4 C 0 km/h
573 17-06-2020 00:45:00 14.4 C 11.62 g/m*3 14.4 C 0 km/h
574 17-06-2020 00:50:00 14.3 C 11.55 g/m*3 14.3 C 0 km/h
575 17-06-2020 00:55:00 14.3 C 11.67 g/m*3 14.3 C 0 km/h
Sensor: Nr:Datum:Temp:Abs-Feuchte:Windchill:Wind:
Aussen-T/F 576 17-06-2020 01:00:00 14.2 C 11.6 g/m*3 14.2 C 0 km/h
577 17-06-2020 01:05:00 14.2 C 11.6 g/m*3 14.2 C 0 km/h
578 17-06-2020 01:10:00 14.1 C 11.53 g/m*3 14.1 C 0 km/h
579 17-06-2020 01:15:00 14.1 C 11.53 g/m*3 14.1 C 0 km/h
580 17-06-2020 01:20:00 14.1 C 11.53 g/m*3 14.1 C 0 km/h
581 17-06-2020 01:25:00 14.1 C 11.53 g/m*3 14.1 C 0 km/h
582 17-06-2020 01:30:00 14 C 11.46 g/m*3 14 C 0 km/h
583 17-06-2020 01:35:00 13.9 C 11.39 g/m*3 13.9 C 0 km/h
584 17-06-2020 01:40:00 13.9 C 11.39 g/m*3 13.9 C 0 km/h
585 17-06-2020 01:45:00 13.8 C 11.32 g/m*3 13.8 C 0 km/h
586 17-06-2020 01:50:00 13.8 C 11.32 g/m*3 13.8 C 0 km/h
587 17-06-2020 01:55:00 13.8 C 11.32 g/m*3 13.8 C 0 km/h
588 17-06-2020 02:00:00 13.9 C 11.39 g/m*3 13.9 C 0 km/h
589 17-06-2020 02:05:00 14 C 11.58 g/m*3 14 C 0 km/h
590 17-06-2020 02:10:00 14.2 C 11.72 g/m*3 14.2 C 0 km/h
591 17-06-2020 02:15:00 14.3 C 11.79 g/m*3 14.3 C 0 km/h
592 17-06-2020 02:20:00 14.4 C 11.87 g/m*3 14.4 C 1.6 km/h
593 17-06-2020 02:25:00 14.6 C 12.01 g/m*3 14.6 C 1.6 km/h
594 17-06-2020 02:30:00 14.7 C 12.09 g/m*3 14.7 C 0 km/h
595 17-06-2020 02:35:00 14.7 C 12.09 g/m*3 14.7 C 0 km/h
596 17-06-2020 02:40:00 14.7 C 12.09 g/m*3 14.7 C 0 km/h
597 17-06-2020 02:45:00 14.7 C 12.09 g/m*3 14.7 C 0 km/h
598 17-06-2020 02:50:00 14.7 C 12.09 g/m*3 14.7 C 0 km/h
599 17-06-2020 02:55:00 14.7 C 12.09 g/m*3 14.7 C 0 km/h
600 17-06-2020 03:00:00 14.7 C 12.09 g/m*3 14.7 C 0 km/h
Sensor: Nr:Datum:Temp:Abs-Feuchte:Windchill:Wind:
Aussen-T/F 601 17-06-2020 03:05:00 14.7 C 12.09 g/m*3 14.7 C 0 km/h
602 17-06-2020 03:10:00 14.6 C 12.01 g/m*3 14.6 C 0 km/h
603 17-06-2020 03:15:00 14.6 C 12.01 g/m*3 14.6 C 1.6 km/h
604 17-06-2020 03:20:00 14.6 C 12.01 g/m*3 14.6 C 0 km/h
605 17-06-2020 03:25:00 14.6 C 12.01 g/m*3 14.6 C 0 km/h
606 17-06-2020 03:30:00 14.6 C 12.01 g/m*3 14.6 C 3.2 km/h
607 17-06-2020 03:35:00 14.5 C 11.94 g/m*3 14.5 C 0 km/h
608 17-06-2020 03:40:00 14.4 C 11.87 g/m*3 14.4 C 0 km/h
609 17-06-2020 03:45:00 14.5 C 12.06 g/m*3 14.5 C 3.2 km/h
610 17-06-2020 03:50:00 14.4 C 11.87 g/m*3 14.4 C 1.6 km/h
611 17-06-2020 03:55:00 14.4 C 11.87 g/m*3 14.4 C 0 km/h
612 17-06-2020 04:00:00 14.4 C 11.87 g/m*3 14.4 C 0 km/h
613 17-06-2020 04:05:00 14.4 C 11.99 g/m*3 14.4 C 0 km/h
614 17-06-2020 04:10:00 14.3 C 11.92 g/m*3 14.3 C 0 km/h
615 17-06-2020 04:15:00 14.3 C 11.92 g/m*3 14.3 C 0 km/h
616 17-06-2020 04:20:00 14.2 C 11.84 g/m*3 14.2 C 0 km/h
617 17-06-2020 04:25:00 14.2 C 11.84 g/m*3 14.2 C 0 km/h
618 17-06-2020 04:30:00 14.2 C 11.84 g/m*3 14.2 C 0 km/h
619 17-06-2020 04:35:00 14.2 C 11.84 g/m*3 14.2 C 0 km/h
620 17-06-2020 04:40:00 14.1 C 11.77 g/m*3 14.1 C 0 km/h
621 17-06-2020 04:45:00 14.1 C 11.77 g/m*3 14.1 C 0 km/h
622 17-06-2020 04:50:00 14.1 C 11.77 g/m*3 14.1 C 0 km/h
623 17-06-2020 04:55:00 14.1 C 11.77 g/m*3 14.1 C 0 km/h
624 17-06-2020 05:00:00 14.1 C 11.77 g/m*3 14.1 C 0 km/h
625 17-06-2020 05:05:00 14.1 C 11.77 g/m*3 14.1 C 0 km/h
Sensor: Nr:Datum:Temp:Abs-Feuchte:Windchill:Wind:
Aussen-T/F 626 17-06-2020 05:10:00 14.1 C 11.77 g/m*3 14.1 C 0 km/h
627 17-06-2020 05:15:00 14.1 C 11.77 g/m*3 14.1 C 0 km/h
628 17-06-2020 05:20:00 14.1 C 11.77 g/m*3 14.1 C 0 km/h
629 17-06-2020 05:25:00 14.2 C 11.84 g/m*3 14.2 C 0 km/h
630 17-06-2020 05:30:00 14.2 C 11.84 g/m*3 14.2 C 0 km/h
631 17-06-2020 05:35:00 14.2 C 11.84 g/m*3 14.2 C 0 km/h
632 17-06-2020 05:40:00 14.2 C 11.84 g/m*3 14.2 C 0 km/h
633 17-06-2020 05:45:00 14.2 C 11.84 g/m*3 14.2 C 0 km/h
634 17-06-2020 05:50:00 14.2 C 11.84 g/m*3 14.2 C 0 km/h
635 17-06-2020 05:55:00 14.3 C 11.92 g/m*3 14.3 C 0 km/h
636 17-06-2020 06:00:00 14.3 C 11.92 g/m*3 14.3 C 0 km/h
637 17-06-2020 06:05:00 14.3 C 11.92 g/m*3 14.3 C 0 km/h
638 17-06-2020 06:10:00 14.3 C 11.92 g/m*3 14.3 C 0 km/h
639 17-06-2020 06:15:00 14.3 C 11.92 g/m*3 14.3 C 0 km/h
640 17-06-2020 06:20:00 14.3 C 11.92 g/m*3 14.3 C 0 km/h
641 17-06-2020 06:25:00 14.3 C 11.92 g/m*3 14.3 C 0 km/h
642 17-06-2020 06:30:00 14.3 C 11.92 g/m*3 14.3 C 0 km/h
643 17-06-2020 06:35:00 14.4 C 11.99 g/m*3 14.4 C 0 km/h
644 17-06-2020 06:40:00 14.4 C 11.99 g/m*3 14.4 C 0 km/h
645 17-06-2020 06:45:00 14.4 C 11.99 g/m*3 14.4 C 0 km/h
646 17-06-2020 06:50:00 14.4 C 11.99 g/m*3 14.4 C 0 km/h
647 17-06-2020 06:55:00 14.4 C 11.99 g/m*3 14.4 C 0 km/h
648 17-06-2020 07:00:00 14.4 C 11.99 g/m*3 14.4 C 0 km/h
649 17-06-2020 07:05:00 14.5 C 12.06 g/m*3 14.5 C 0 km/h
650 17-06-2020 07:10:00 14.6 C 12.14 g/m*3 14.6 C 0 km/h
Sensor: Nr:Datum:Temp:Abs-Feuchte:Windchill:Wind:
Aussen-T/F 651 17-06-2020 07:15:00 14.6 C 12.14 g/m*3 14.6 C 0 km/h
652 17-06-2020 07:20:00 14.6 C 12.14 g/m*3 14.6 C 0 km/h
653 17-06-2020 07:25:00 14.6 C 12.14 g/m*3 14.6 C 0 km/h
654 17-06-2020 07:30:00 14.6 C 12.14 g/m*3 14.6 C 0 km/h
655 17-06-2020 07:35:00 14.6 C 12.14 g/m*3 14.6 C 0 km/h
656 17-06-2020 07:40:00 14.6 C 12.14 g/m*3 14.6 C 0 km/h
657 17-06-2020 07:45:00 14.7 C 12.21 g/m*3 14.7 C 0 km/h
658 17-06-2020 07:50:00 14.8 C 12.29 g/m*3 14.8 C 0 km/h
659 17-06-2020 07:55:00 14.8 C 12.29 g/m*3 14.8 C 0 km/h
660 17-06-2020 08:00:00 14.8 C 12.29 g/m*3 14.8 C 0 km/h
661 17-06-2020 08:05:00 14.9 C 12.36 g/m*3 14.9 C 0 km/h
662 17-06-2020 08:10:00 14.9 C 12.36 g/m*3 14.9 C 0 km/h
663 17-06-2020 08:15:00 14.9 C 12.36 g/m*3 14.9 C 0 km/h
664 17-06-2020 08:20:00 14.9 C 12.36 g/m*3 14.9 C 0 km/h
665 17-06-2020 08:25:00 14.9 C 12.36 g/m*3 14.9 C 0 km/h
666 17-06-2020 08:30:00 14.9 C 12.36 g/m*3 14.9 C 0 km/h
667 17-06-2020 08:35:00 14.9 C 12.36 g/m*3 14.9 C 0 km/h
668 17-06-2020 08:40:00 14.9 C 12.36 g/m*3 14.9 C 0 km/h
669 17-06-2020 08:45:00 15 C 12.44 g/m*3 15 C 0 km/h
670 17-06-2020 08:50:00 15 C 12.44 g/m*3 15 C 0 km/h
671 17-06-2020 08:55:00 15 C 12.44 g/m*3 15 C 0 km/h
672 17-06-2020 09:00:00 15.1 C 12.51 g/m*3 15.1 C 0 km/h
673 17-06-2020 09:05:00 15.1 C 12.51 g/m*3 15.1 C 0 km/h
674 17-06-2020 09:10:00 15.2 C 12.59 g/m*3 15.2 C 0 km/h
675 17-06-2020 09:15:00 15.2 C 12.59 g/m*3 15.2 C 0 km/h
Sensor: Nr:Datum:Temp:Abs-Feuchte:Windchill:Wind:
Aussen-T/F 676 17-06-2020 09:20:00 15.3 C 12.67 g/m*3 15.3 C 0 km/h
677 17-06-2020 09:25:00 15.3 C 12.67 g/m*3 15.3 C 0 km/h
678 17-06-2020 09:30:00 15.4 C 12.74 g/m*3 15.4 C 0 km/h
679 17-06-2020 09:35:00 15.5 C 12.82 g/m*3 15.5 C 0 km/h
680 17-06-2020 09:40:00 15.7 C 12.98 g/m*3 15.7 C 0 km/h
681 17-06-2020 09:45:00 15.7 C 12.98 g/m*3 15.7 C 0 km/h
682 17-06-2020 09:50:00 15.8 C 13.06 g/m*3 15.8 C 0 km/h
683 17-06-2020 09:55:00 15.9 C 13.14 g/m*3 15.9 C 0 km/h
684 17-06-2020 10:00:00 15.9 C 13.14 g/m*3 15.9 C 3.2 km/h
685 17-06-2020 10:05:00 16 C 13.08 g/m*3 16 C 0 km/h
686 17-06-2020 10:10:00 16 C 13.08 g/m*3 16 C 0 km/h
687 17-06-2020 10:15:00 16.2 C 13.24 g/m*3 16.2 C 0 km/h
688 17-06-2020 10:20:00 16.4 C 13.4 g/m*3 16.4 C 0 km/h
689 17-06-2020 10:25:00 16.6 C 13.42 g/m*3 16.6 C 4.8 km/h
690 17-06-2020 10:30:00 16.7 C 13.5 g/m*3 16.7 C 4.8 km/h
691 17-06-2020 10:35:00 16.8 C 13.58 g/m*3 16.8 C 3.2 km/h
692 17-06-2020 10:40:00 16.9 C 13.38 g/m*3 16.9 C 1.6 km/h
693 17-06-2020 10:45:00 17.1 C 13.68 g/m*3 17.1 C 1.6 km/h
694 17-06-2020 10:50:00 17.4 C 13.93 g/m*3 17.4 C 0 km/h
695 17-06-2020 10:55:00 17.6 C 13.8 g/m*3 17.6 C 4.8 km/h
696 17-06-2020 11:00:00 17.7 C 13.88 g/m*3 17.7 C 0 km/h
697 17-06-2020 11:05:00 17.8 C 13.81 g/m*3 17.8 C 1.6 km/h
698 17-06-2020 11:10:00 18 C 13.82 g/m*3 18 C 6.4 km/h
699 17-06-2020 11:15:00 18.1 C 13.75 g/m*3 18.1 C 6.4 km/h
700 17-06-2020 11:20:00 18.2 C 13.68 g/m*3 18.2 C 4.8 km/h
Sensor: Nr:Datum:Temp:Abs-Feuchte:Windchill:Wind:
Aussen-T/F 701 17-06-2020 11:25:00 18.3 C 13.92 g/m*3 18.3 C 6.4 km/h
702 17-06-2020 11:30:00 18.5 C 14.08 g/m*3 18.5 C 4.8 km/h
703 17-06-2020 11:35:00 18.8 C 14.01 g/m*3 18.8 C 6.4 km/h
704 17-06-2020 11:40:00 19.1 C 14.1 g/m*3 19.1 C 6.4 km/h
705 17-06-2020 11:45:00 19.1 C 13.77 g/m*3 19.1 C 8.1 km/h
706 17-06-2020 11:50:00 19.2 C 13.69 g/m*3 19.2 C 6.4 km/h
707 17-06-2020 11:55:00 19.3 C 13.77 g/m*3 19.3 C 6.4 km/h
708 17-06-2020 12:00:00 19.6 C 13.84 g/m*3 19.6 C 6.4 km/h
709 17-06-2020 12:05:00 19.8 C 13.84 g/m*3 19.8 C 6.4 km/h
710 17-06-2020 12:10:00 20.1 C 14.08 g/m*3 20.1 C 3.2 km/h
711 17-06-2020 12:15:00 20.2 C 13.99 g/m*3 20.2 C 0 km/h
712 17-06-2020 12:20:00 20.4 C 14.33 g/m*3 20.4 C 1.6 km/h
713 17-06-2020 12:25:00 20.6 C 14.14 g/m*3 20.6 C 8.1 km/h
714 17-06-2020 12:30:00 20.6 C 14.14 g/m*3 20.6 C 6.4 km/h
715 17-06-2020 12:35:00 20.7 C 14.04 g/m*3 20.7 C 4.8 km/h
716 17-06-2020 12:40:00 20.8 C 14.12 g/m*3 20.8 C 4.8 km/h
717 17-06-2020 12:45:00 21 C 14.29 g/m*3 21 C 6.4 km/h
718 17-06-2020 12:50:00 21.2 C 14.27 g/m*3 21.2 C 11.3 km/h
719 17-06-2020 12:55:00 21.2 C 14.08 g/m*3 21.2 C 4.8 km/h
720 17-06-2020 13:00:00 21.3 C 14.17 g/m*3 21.3 C 4.8 km/h
721 17-06-2020 13:05:00 21.3 C 14.17 g/m*3 21.3 C 6.4 km/h
722 17-06-2020 13:10:00 21.4 C 14.06 g/m*3 21.4 C 4.8 km/h
723 17-06-2020 13:15:00 21.6 C 14.22 g/m*3 21.6 C 3.2 km/h
724 17-06-2020 13:20:00 21.7 C 14.5 g/m*3 21.7 C 9.7 km/h
725 17-06-2020 13:25:00 21.8 C 14.01 g/m*3 21.8 C 8.1 km/h
Sensor: Nr:Datum:Temp:Abs-Feuchte:Windchill:Wind:
Aussen-T/F 726 17-06-2020 13:30:00 21.8 C 14.01 g/m*3 21.8 C 4.8 km/h
727 17-06-2020 13:35:00 21.9 C 14.28 g/m*3 21.9 C 4.8 km/h
728 17-06-2020 13:40:00 22.1 C 14.25 g/m*3 22.1 C 4.8 km/h
729 17-06-2020 13:45:00 22.2 C 14.53 g/m*3 22.2 C 4.8 km/h
730 17-06-2020 13:50:00 22.3 C 14.41 g/m*3 22.3 C 3.2 km/h
731 17-06-2020 13:55:00 22.4 C 14.5 g/m*3 22.4 C 1.6 km/h
732 17-06-2020 14:00:00 22.4 C 14.3 g/m*3 22.4 C 6.4 km/h
733 17-06-2020 14:05:00 22.4 C 14.1 g/m*3 22.4 C 4.8 km/h
734 17-06-2020 14:10:00 22.4 C 14.1 g/m*3 22.4 C 1.6 km/h
735 17-06-2020 14:15:00 22.4 C 14.1 g/m*3 22.4 C 0 km/h
736 17-06-2020 14:20:00 22.6 C 14.26 g/m*3 22.6 C 4.8 km/h
737 17-06-2020 14:25:00 22.6 C 14.26 g/m*3 22.6 C 3.2 km/h
738 17-06-2020 14:30:00 22.7 C 14.55 g/m*3 22.7 C 1.6 km/h
739 17-06-2020 14:35:00 22.8 C 14.22 g/m*3 22.8 C 6.4 km/h
740 17-06-2020 14:40:00 22.9 C 14.1 g/m*3 22.9 C 3.2 km/h
741 17-06-2020 14:45:00 23.1 C 14.47 g/m*3 23.1 C 4.8 km/h
742 17-06-2020 14:50:00 23.3 C 14.22 g/m*3 23.3 C 1.6 km/h
743 17-06-2020 14:55:00 23.4 C 14.3 g/m*3 23.4 C 4.8 km/h
744 17-06-2020 15:00:00 23.7 C 14.54 g/m*3 23.7 C 4.8 km/h
745 17-06-2020 15:05:00 23.7 C 13.9 g/m*3 23.7 C 4.8 km/h
746 17-06-2020 15:10:00 23.7 C 13.9 g/m*3 23.7 C 6.4 km/h
747 17-06-2020 15:15:00 23.6 C 14.04 g/m*3 23.6 C 9.7 km/h
748 17-06-2020 15:20:00 23.4 C 14.3 g/m*3 23.4 C 3.2 km/h
749 17-06-2020 15:25:00 23.4 C 14.51 g/m*3 23.4 C 1.6 km/h
750 17-06-2020 15:30:00 23.6 C 16.38 g/m*3 23.6 C 3.2 km/h
Sensor: Nr:Datum:Temp:Abs-Feuchte:Windchill:Wind:
Aussen-T/F 751 17-06-2020 15:35:00 23.3 C 16.1 g/m*3 23.3 C 4.8 km/h
752 17-06-2020 15:40:00 22.9 C 15.94 g/m*3 22.9 C 4.8 km/h
753 17-06-2020 15:45:00 22.3 C 15.8 g/m*3 22.3 C 6.4 km/h
754 17-06-2020 15:50:00 21.8 C 15.73 g/m*3 21.8 C 8.1 km/h
755 17-06-2020 15:55:00 21.3 C 15.47 g/m*3 21.3 C 6.4 km/h
756 17-06-2020 16:00:00 20.9 C 15.48 g/m*3 20.9 C 6.4 km/h
757 17-06-2020 16:05:00 20.7 C 15.48 g/m*3 20.7 C 6.4 km/h
758 17-06-2020 16:10:00 20.4 C 15.57 g/m*3 20.4 C 6.4 km/h
759 17-06-2020 16:15:00 20.3 C 15.48 g/m*3 20.3 C 3.2 km/h
760 17-06-2020 16:20:00 20.3 C 15.65 g/m*3 20.3 C 3.2 km/h
761 17-06-2020 16:25:00 20.3 C 15.83 g/m*3 20.3 C 0 km/h
762 17-06-2020 16:30:00 20.3 C 15.83 g/m*3 20.3 C 0 km/h
763 17-06-2020 16:35:00 20.3 C 16 g/m*3 20.3 C 0 km/h
764 17-06-2020 16:40:00 20.4 C 16.28 g/m*3 20.4 C 0 km/h
765 17-06-2020 16:45:00 20.5 C 16.37 g/m*3 20.5 C 0 km/h
766 17-06-2020 16:50:00 20.7 C 16.56 g/m*3 20.7 C 1.6 km/h
767 17-06-2020 16:55:00 20.8 C 16.66 g/m*3 20.8 C 1.6 km/h
768 17-06-2020 17:00:00 20.8 C 16.66 g/m*3 20.8 C 0 km/h
769 17-06-2020 17:05:00 20.9 C 16.57 g/m*3 20.9 C 0 km/h
770 17-06-2020 17:10:00 21.1 C 16.77 g/m*3 21.1 C 0 km/h
771 17-06-2020 17:15:00 21.1 C 16.58 g/m*3 21.1 C 1.6 km/h
772 17-06-2020 17:20:00 21.2 C 16.68 g/m*3 21.2 C 0 km/h
773 17-06-2020 17:25:00 21.3 C 16.78 g/m*3 21.3 C 0 km/h
774 17-06-2020 17:30:00 21.5 C 16.97 g/m*3 21.5 C 0 km/h
775 17-06-2020 17:35:00 21.7 C 17.17 g/m*3 21.7 C 0 km/h
Sensor: Nr:Datum:Temp:Abs-Feuchte:Windchill:Wind:
Aussen-T/F 776 17-06-2020 17:40:00 21.9 C 17.17 g/m*3 21.9 C 0 km/h
777 17-06-2020 17:45:00 21.9 C 16.4 g/m*3 21.9 C 1.6 km/h
778 17-06-2020 17:50:00 22.2 C 15.9 g/m*3 22.2 C 3.2 km/h
779 17-06-2020 17:55:00 22.5 C 15.38 g/m*3 22.5 C 6.4 km/h
780 17-06-2020 18:00:00 22.7 C 15.15 g/m*3 22.7 C 6.4 km/h
781 17-06-2020 18:05:00 22.8 C 15.24 g/m*3 22.8 C 1.6 km/h
782 17-06-2020 18:10:00 23.2 C 15.38 g/m*3 23.2 C 4.8 km/h
783 17-06-2020 18:15:00 23.4 C 15.56 g/m*3 23.4 C 4.8 km/h
784 17-06-2020 18:20:00 23.7 C 15.4 g/m*3 23.7 C 4.8 km/h
785 17-06-2020 18:25:00 24.1 C 15.75 g/m*3 24.1 C 3.2 km/h
786 17-06-2020 18:30:00 24.2 C 14.96 g/m*3 24.2 C 4.8 km/h
787 17-06-2020 18:35:00 23.8 C 15.06 g/m*3 23.8 C 4.8 km/h
788 17-06-2020 18:40:00 23.3 C 15.05 g/m*3 23.3 C 4.8 km/h
789 17-06-2020 18:45:00 23.1 C 15.5 g/m*3 23.1 C 1.6 km/h
790 17-06-2020 18:50:00 23 C 16.03 g/m*3 23 C 0 km/h
791 17-06-2020 18:55:00 22.8 C 15.65 g/m*3 22.8 C 1.6 km/h
792 17-06-2020 19:00:00 22.4 C 15.09 g/m*3 22.4 C 8.1 km/h
793 17-06-2020 19:05:00 21.8 C 14.01 g/m*3 21.8 C 8.1 km/h
794 17-06-2020 19:10:00 21.2 C 13.9 g/m*3 21.2 C 11.3 km/h
795 17-06-2020 19:15:00 20.6 C 13.78 g/m*3 20.6 C 8.1 km/h
796 17-06-2020 19:20:00 20 C 13.83 g/m*3 20 C 8.1 km/h
797 17-06-2020 19:25:00 19.6 C 13.84 g/m*3 19.6 C 4.8 km/h
798 17-06-2020 19:30:00 19.1 C 13.61 g/m*3 19.1 C 0 km/h
799 17-06-2020 19:35:00 18.8 C 13.85 g/m*3 18.8 C 1.6 km/h
800 17-06-2020 19:40:00 18.5 C 13.77 g/m*3 18.5 C 0 km/h
Sensor: Nr:Datum:Temp:Abs-Feuchte:Windchill:Wind:
Aussen-T/F 801 17-06-2020 19:45:00 18.2 C 13.68 g/m*3 18.2 C 0 km/h
802 17-06-2020 19:50:00 17.9 C 13.59 g/m*3 17.9 C 6.4 km/h
803 17-06-2020 19:55:00 17.7 C 13.58 g/m*3 17.7 C 1.6 km/h
804 17-06-2020 20:00:00 17.6 C 13.65 g/m*3 17.6 C 1.6 km/h
805 17-06-2020 20:05:00 17.4 C 13.49 g/m*3 17.4 C 0 km/h
806 17-06-2020 20:10:00 17.4 C 13.63 g/m*3 17.4 C 0 km/h
807 17-06-2020 20:15:00 17.3 C 13.55 g/m*3 17.3 C 0 km/h
808 17-06-2020 20:20:00 17.3 C 13.55 g/m*3 17.3 C 0 km/h
809 17-06-2020 20:25:00 17.2 C 13.47 g/m*3 17.2 C 3.2 km/h
810 17-06-2020 20:30:00 17.2 C 13.47 g/m*3 17.2 C 1.6 km/h
811 17-06-2020 20:35:00 17.1 C 13.54 g/m*3 17.1 C 1.6 km/h
812 17-06-2020 20:40:00 17 C 13.46 g/m*3 17 C 1.6 km/h
813 17-06-2020 20:45:00 16.9 C 13.38 g/m*3 16.9 C 1.6 km/h
814 17-06-2020 20:50:00 16.9 C 13.38 g/m*3 16.9 C 1.6 km/h
815 17-06-2020 20:55:00 16.8 C 13.3 g/m*3 16.8 C 0 km/h
816 17-06-2020 21:00:00 16.8 C 13.44 g/m*3 16.8 C 3.2 km/h
817 17-06-2020 21:05:00 16.7 C 13.36 g/m*3 16.7 C 4.8 km/h
818 17-06-2020 21:10:00 16.6 C 13.14 g/m*3 16.6 C 4.8 km/h
819 17-06-2020 21:15:00 16.6 C 13.28 g/m*3 16.6 C 4.8 km/h
820 17-06-2020 21:20:00 16.5 C 13.2 g/m*3 16.5 C 4.8 km/h
821 17-06-2020 21:25:00 16.5 C 13.2 g/m*3 16.5 C 3.2 km/h
822 17-06-2020 21:30:00 16.5 C 13.2 g/m*3 16.5 C 4.8 km/h
823 17-06-2020 21:35:00 16.5 C 13.34 g/m*3 16.5 C 3.2 km/h
824 17-06-2020 21:40:00 16.5 C 13.34 g/m*3 16.5 C 3.2 km/h
825 17-06-2020 21:45:00 16.5 C 13.34 g/m*3 16.5 C 4.8 km/h
Sensor: Nr:Datum:Temp:Abs-Feuchte:Windchill:Wind:
Aussen-T/F 826 17-06-2020 21:50:00 16.4 C 13.26 g/m*3 16.4 C 4.8 km/h
827 17-06-2020 21:55:00 16.4 C 13.26 g/m*3 16.4 C 3.2 km/h
828 17-06-2020 22:00:00 16.4 C 13.26 g/m*3 16.4 C 1.6 km/h
829 17-06-2020 22:05:00 16.4 C 13.26 g/m*3 16.4 C 1.6 km/h
830 17-06-2020 22:10:00 16.4 C 13.26 g/m*3 16.4 C 1.6 km/h
831 17-06-2020 22:15:00 16.4 C 13.26 g/m*3 16.4 C 3.2 km/h
832 17-06-2020 22:20:00 16.3 C 13.18 g/m*3 16.3 C 0 km/h
833 17-06-2020 22:25:00 16.3 C 13.18 g/m*3 16.3 C 1.6 km/h
834 17-06-2020 22:30:00 16.2 C 13.1 g/m*3 16.2 C 0 km/h
835 17-06-2020 22:35:00 16.1 C 13.02 g/m*3 16.1 C 3.2 km/h
836 17-06-2020 22:40:00 16.1 C 13.02 g/m*3 16.1 C 1.6 km/h
837 17-06-2020 22:45:00 15.9 C 12.87 g/m*3 15.9 C 0 km/h
838 17-06-2020 22:50:00 15.9 C 12.87 g/m*3 15.9 C 1.6 km/h
839 17-06-2020 22:55:00 15.8 C 12.79 g/m*3 15.8 C 4.8 km/h
840 17-06-2020 23:00:00 15.8 C 12.79 g/m*3 15.8 C 8.1 km/h
841 17-06-2020 23:05:00 15.7 C 12.71 g/m*3 15.7 C 6.4 km/h
842 17-06-2020 23:10:00 15.6 C 12.63 g/m*3 15.6 C 6.4 km/h
843 17-06-2020 23:15:00 15.6 C 12.63 g/m*3 15.6 C 4.8 km/h
844 17-06-2020 23:20:00 15.6 C 12.63 g/m*3 15.6 C 8.1 km/h
845 17-06-2020 23:25:00 15.6 C 12.63 g/m*3 15.6 C 4.8 km/h
846 17-06-2020 23:30:00 15.6 C 12.63 g/m*3 15.6 C 3.2 km/h
847 17-06-2020 23:35:00 15.5 C 12.56 g/m*3 15.5 C 4.8 km/h
848 17-06-2020 23:40:00 15.4 C 12.48 g/m*3 15.4 C 1.6 km/h
849 17-06-2020 23:45:00 15.4 C 12.48 g/m*3 15.4 C 3.2 km/h
850 17-06-2020 23:50:00 15.3 C 12.41 g/m*3 15.3 C 1.6 km/h
Sensor: Nr:Datum:Temp:Abs-Feuchte:Windchill:Wind:
Aussen-T/F 851 17-06-2020 23:55:00 15.3 C 12.41 g/m*3 15.3 C 0 km/h

Legende:
   Min
   Max


Maximal/Minimal-Werte vom 23.02.2003 - 13.06.2020

Sensor Min Max Avg
Temp
(Aussen-T/F)
-16.4 °C
20-12-2009  01:30:01
40.4 °C
25-07-2019  16:20:00
11.13 °C

Die Daten stammen von einer Davis Vantage Pro 2 Wetter-Station und werden unter Linux mit der Software wview2wettercgi und aufbereitet. Alle Angaben erfolgen ohne Gewähr für ihre Vollständigkeit oder Richtigkeit.
Kontakt: Rainer Krienke krienke@uni-koblenz.de . Meine Webseiten an der Uni Koblenz oder privat.
Version: $Revision: 0.78 $